Terug naar catalogus

STARLINK-33684

ActiefCommunicatieVLEO
NORAD 63649·PAYLOAD·🇺🇸 United States

Gelanceerd Apr 25, 2025 vanaf Cape Canaveral Space Force Station

Loading…

Volgende Passages (komende 24 uur)

TLE

VersSource: CelesTrak SupGP

Epoch: Sep 14, 2026, 21:02 UTC

1 63649C 25083R   26257.87687500  .00040605  00000+0  14707-2 0  2571
2 63649  43.0033  16.4477 0001839 276.5253 111.2363 15.27556538    18

Volg STARLINK-33684 in realtime met AllMySat

Download on the App Store